Tracking 31027 objects as of 19-Jul-2025
HD Live streaming from Space Station
objects crossing your sky now

SL-8 DEB

Track SL-8 DEB now!
10-day predictions


NORAD ID: 21724
Int'l Code: 1991-009BZ
Perigee: 1,433.1 km
Apogee: 1,761.1 km
Inclination: 74.0 °
Period: 118.0 minutes
Semi major axis: 7968 km
RCS: 0.1023 m2 (medium)
Launch date: February 12, 1991
Source: Commonwealth of Independent States (former USSR) (CIS)
Launch site: PLESETSK MISSILE AND SPACE COMPLEX (PKMTR)

Note: This is SATELLITE DEBRIS
Your satellite tracking list
RESURS O1 DEB
Track 1 satellite(s)




NASA's NSSDC Master Catalog

Two Line Element Set (TLE):
1 21724U 91009BZ  25199.39361235  .00000047  00000-0  53996-3 0  9999
2 21724  73.9773 176.2107 0205824  94.3382  58.3861 12.20589055505893
Source of the keplerian elements: AFSPC